Time,TemperatureF,DewpointF,PressureIn,WindDirection,WindDirectionDegrees,WindSpeedMPH,WindSpeedGustMPH,Humidity,HourlyPrecipIn,Conditions,Clouds,dailyrainin,SoftwareType,DateUTC
2013-06-12 00:00:00,71.1,64.2,29.90,North,0,2.0,2.0,79,0.00,,,0.00,meteohub,2013-06-12 05:00:00,
2013-06-12 00:05:00,71.1,64.2,29.90,North,0,2.0,2.0,79,0.00,,,0.00,meteohub,2013-06-12 05:05:00,
2013-06-12 00:10:00,70.9,64.0,29.90,North,0,1.0,2.0,79,0.00,,,0.00,meteohub,2013-06-12 05:10:00,
2013-06-12 00:15:00,71.1,64.2,29.90,NE,45,2.0,2.0,79,0.00,,,0.00,meteohub,2013-06-12 05:15:00,
2013-06-12 00:20:00,71.1,64.2,29.90,NE,45,0.0,2.0,79,0.00,,,0.00,meteohub,2013-06-12 05:20:00,
2013-06-12 00:25:00,71.1,64.2,29.90,NE,45,0.0,2.0,79,0.00,,,0.00,meteohub,2013-06-12 05:25:00,
2013-06-12 00:30:00,70.9,64.0,29.90,SW,225,0.0,2.0,79,0.00,,,0.00,meteohub,2013-06-12 05:30:00,
2013-06-12 00:36:00,70.5,64.0,29.91,NW,315,0.0,0.0,80,0.00,,,0.00,meteohub,2013-06-12 05:36:00,
2013-06-12 00:41:00,70.5,64.0,29.90,West,270,0.0,0.0,80,0.00,,,0.00,meteohub,2013-06-12 05:41:00,
2013-06-12 00:46:00,70.3,63.9,29.91,NE,45,0.0,0.0,80,0.00,,,0.00,meteohub,2013-06-12 05:46:00,
2013-06-12 00:51:00,70.7,64.2,29.91,NNE,23,4.0,0.0,80,0.00,,,0.00,meteohub,2013-06-12 05:51:00,
2013-06-12 00:56:00,70.3,63.9,29.90,NE,45,5.0,5.0,80,0.00,,,0.00,meteohub,2013-06-12 05:56:00,
2013-06-12 01:02:00,70.0,64.2,29.91,North,0,5.0,5.0,82,0.00,,,0.00,meteohub,2013-06-12 06:02:00,
2013-06-12 01:07:00,69.8,64.4,29.91,North,0,4.0,5.0,83,0.00,,,0.00,meteohub,2013-06-12 06:07:00,
2013-06-12 01:12:00,70.0,64.6,29.91,North,0,5.0,6.0,83,0.00,,,0.00,meteohub,2013-06-12 06:12:00,
2013-06-12 01:17:00,70.0,64.2,29.93,North,0,4.0,6.0,82,0.00,,,0.00,meteohub,2013-06-12 06:17:00,
2013-06-12 01:22:00,70.3,64.6,29.92,North,0,4.0,6.0,82,0.00,,,0.00,meteohub,2013-06-12 06:22:00,
2013-06-12 01:27:00,70.3,64.2,29.92,NE,45,4.0,7.0,81,0.00,,,0.00,meteohub,2013-06-12 06:27:00,
2013-06-12 01:32:00,70.3,64.6,29.91,NE,45,8.0,8.0,82,0.00,,,0.00,meteohub,2013-06-12 06:32:00,
2013-06-12 01:37:00,70.3,64.6,29.91,NE,45,8.0,8.0,82,0.00,,,0.00,meteohub,2013-06-12 06:37:00,
2013-06-12 01:43:00,70.3,64.6,29.91,NE,45,5.0,8.0,82,0.00,,,0.00,meteohub,2013-06-12 06:43:00,
2013-06-12 01:48:00,69.8,64.0,29.89,NE,45,6.0,8.0,82,0.00,,,0.00,meteohub,2013-06-12 06:48:00,
2013-06-12 01:53:00,69.3,64.2,29.88,NE,45,7.0,8.0,84,0.00,,,0.00,meteohub,2013-06-12 06:53:00,
2013-06-12 01:58:00,69.1,64.4,29.87,NE,45,7.0,8.0,85,0.00,,,0.00,meteohub,2013-06-12 06:58:00,
2013-06-12 02:03:00,69.1,64.4,29.87,East,90,6.0,8.0,85,0.00,,,0.00,meteohub,2013-06-12 07:03:00,
2013-06-12 02:08:00,68.7,64.0,29.86,East,90,4.0,8.0,85,0.00,,,0.00,meteohub,2013-06-12 07:08:00,
2013-06-12 02:13:00,68.5,64.2,29.86,East,90,4.0,8.0,86,0.00,,,0.00,meteohub,2013-06-12 07:13:00,
2013-06-12 02:19:00,68.5,64.2,29.86,East,90,4.0,6.0,86,0.00,,,0.00,meteohub,2013-06-12 07:19:00,
2013-06-12 02:24:00,68.4,64.0,29.85,SE,135,4.0,6.0,86,0.00,,,0.00,meteohub,2013-06-12 07:24:00,
2013-06-12 02:29:00,68.4,64.0,29.84,East,90,5.0,5.0,86,0.00,,,0.00,meteohub,2013-06-12 07:29:00,
2013-06-12 02:34:00,68.7,64.0,29.85,SE,135,4.0,5.0,85,0.00,,,0.00,meteohub,2013-06-12 07:34:00,
2013-06-12 02:39:00,68.7,64.0,29.85,SW,225,4.0,8.0,85,0.00,,,0.00,meteohub,2013-06-12 07:39:00,
2013-06-12 02:44:00,68.9,64.2,29.86,West,270,3.0,8.0,85,0.00,,,0.00,meteohub,2013-06-12 07:44:00,
2013-06-12 02:49:00,69.1,64.0,29.88,West,270,5.0,6.0,84,0.00,,,0.00,meteohub,2013-06-12 07:49:00,
2013-06-12 02:54:00,68.7,63.7,29.89,NW,315,2.0,6.0,84,0.00,,,0.00,meteohub,2013-06-12 07:54:00,
2013-06-12 02:59:00,68.7,63.7,29.89,North,0,2.0,6.0,84,0.00,,,0.00,meteohub,2013-06-12 07:59:00,
2013-06-12 03:05:00,68.7,63.7,29.90,North,0,2.0,5.0,84,0.00,,,0.00,meteohub,2013-06-12 08:05:00,
2013-06-12 03:10:00,68.5,63.9,29.90,NNW,338,8.0,8.0,85,0.00,,,0.00,meteohub,2013-06-12 08:10:00,
2013-06-12 03:15:00,68.4,64.0,29.90,NE,45,7.0,9.0,86,0.00,,,0.00,meteohub,2013-06-12 08:15:00,
2013-06-12 03:20:00,68.4,64.0,29.90,North,0,2.0,9.0,86,0.00,,,0.00,meteohub,2013-06-12 08:20:00,
2013-06-12 03:25:00,68.4,64.0,29.91,North,0,13.0,13.0,86,0.00,,,0.00,meteohub,2013-06-12 08:25:00,
2013-06-12 03:30:00,68.4,64.4,29.91,North,0,10.0,13.0,87,0.00,,,0.00,meteohub,2013-06-12 08:30:00,
2013-06-12 03:35:00,68.2,64.2,29.89,North,0,9.0,13.0,87,0.00,,,0.00,meteohub,2013-06-12 08:35:00,
2013-06-12 03:40:00,68.0,64.4,29.89,NE,45,11.0,13.0,88,0.00,,,0.00,meteohub,2013-06-12 08:40:00,
2013-06-12 03:46:00,68.0,64.4,29.88,NE,45,11.0,14.0,88,0.00,,,0.00,meteohub,2013-06-12 08:46:00,
2013-06-12 03:51:00,67.8,64.2,29.87,NE,45,11.0,14.0,88,0.00,,,0.00,meteohub,2013-06-12 08:51:00,
2013-06-12 03:56:00,67.8,64.4,29.85,NE,45,12.0,14.0,89,0.00,,,0.00,meteohub,2013-06-12 08:56:00,
2013-06-12 04:01:00,67.8,64.2,29.86,NE,45,11.0,13.0,88,0.00,,,0.00,meteohub,2013-06-12 09:01:00,
2013-06-12 04:06:00,67.8,64.2,29.87,NE,45,11.0,13.0,88,0.00,,,0.00,meteohub,2013-06-12 09:06:00,
2013-06-12 04:11:00,67.6,64.2,29.87,NE,45,11.0,13.0,89,0.00,,,0.00,meteohub,2013-06-12 09:11:00,
2013-06-12 04:16:00,67.6,64.2,29.87,NE,45,10.0,12.0,89,0.00,,,0.00,meteohub,2013-06-12 09:16:00,
2013-06-12 04:21:00,67.8,64.4,29.87,NE,45,12.0,14.0,89,0.00,,,0.00,meteohub,2013-06-12 09:21:00,
2013-06-12 04:26:00,67.8,64.2,29.87,NE,45,15.0,15.0,88,0.00,,,0.00,meteohub,2013-06-12 09:26:00,
2013-06-12 04:31:00,68.0,64.4,29.86,NE,45,16.0,16.0,88,0.00,,,0.00,meteohub,2013-06-12 09:31:00,
2013-06-12 04:36:00,68.0,64.4,29.87,NE,45,15.0,20.0,88,0.00,,,0.00,meteohub,2013-06-12 09:36:00,
2013-06-12 04:41:00,68.2,64.2,29.87,NE,45,13.0,20.0,87,0.00,,,0.00,meteohub,2013-06-12 09:41:00,
2013-06-12 04:46:00,68.4,64.0,29.86,NE,45,12.0,20.0,86,0.00,,,0.00,meteohub,2013-06-12 09:46:00,
2013-06-12 04:51:00,68.2,63.9,29.87,East,90,10.0,16.0,86,0.00,,,0.00,meteohub,2013-06-12 09:51:00,
2013-06-12 04:56:00,68.4,64.0,29.87,NE,45,12.0,15.0,86,0.00,,,0.00,meteohub,2013-06-12 09:56:00,
2013-06-12 05:02:00,68.4,63.7,29.88,NE,45,11.0,13.0,85,0.00,,,0.00,meteohub,2013-06-12 10:02:00,
2013-06-12 05:07:00,68.4,63.7,29.87,NE,45,11.0,13.0,85,0.00,,,0.00,meteohub,2013-06-12 10:07:00,
2013-06-12 05:12:00,68.5,63.5,29.87,East,90,8.0,13.0,84,0.00,,,0.00,meteohub,2013-06-12 10:12:00,
2013-06-12 05:17:00,68.4,63.3,29.87,East,90,9.0,11.0,84,0.00,,,0.00,meteohub,2013-06-12 10:17:00,
2013-06-12 05:22:00,68.2,63.1,29.88,SE,135,10.0,11.0,84,0.00,,,0.00,meteohub,2013-06-12 10:22:00,
2013-06-12 05:27:00,68.2,63.1,29.88,ENE,68,7.0,10.0,84,0.00,,,0.00,meteohub,2013-06-12 10:27:00,
2013-06-12 05:32:00,68.4,63.0,29.88,East,90,6.0,10.0,83,0.00,,,0.00,meteohub,2013-06-12 10:32:00,
2013-06-12 05:37:00,68.2,62.8,29.88,ESE,113,4.0,10.0,83,0.00,,,0.00,meteohub,2013-06-12 10:37:00,
2013-06-12 05:42:00,68.2,62.8,29.89,SE,135,5.0,9.0,83,0.00,,,0.00,meteohub,2013-06-12 10:42:00,
2013-06-12 05:47:00,68.4,63.0,29.90,SE,135,2.0,8.0,83,0.00,,,0.00,meteohub,2013-06-12 10:47:00,
2013-06-12 05:52:00,68.2,62.8,29.91,SW,225,4.0,5.0,83,0.00,,,0.00,meteohub,2013-06-12 10:52:00,
2013-06-12 05:57:00,68.4,63.0,29.91,SW,225,4.0,5.0,83,0.00,,,0.00,meteohub,2013-06-12 10:57:00,
2013-06-12 06:02:00,68.2,63.1,29.91,SW,225,5.0,5.0,84,0.00,,,0.00,meteohub,2013-06-12 11:02:00,
2013-06-12 06:07:00,68.2,63.5,29.91,West,270,4.0,5.0,85,0.00,,,0.00,meteohub,2013-06-12 11:07:00,
2013-06-12 06:12:00,68.0,63.3,29.93,West,270,4.0,5.0,85,0.00,,,0.00,meteohub,2013-06-12 11:12:00,
2013-06-12 06:17:00,68.0,63.7,29.93,SW,225,7.0,7.0,86,0.00,,,0.00,meteohub,2013-06-12 11:17:00,
2013-06-12 06:22:00,68.0,64.0,29.93,SW,225,6.0,7.0,87,0.00,,,0.00,meteohub,2013-06-12 11:22:00,
2013-06-12 06:27:00,67.8,63.9,29.93,SW,225,7.0,8.0,87,0.00,,,0.00,meteohub,2013-06-12 11:27:00,
2013-06-12 06:32:00,68.0,64.4,29.93,NW,315,7.0,8.0,88,0.00,,,0.00,meteohub,2013-06-12 11:32:00,
2013-06-12 06:37:00,67.8,64.2,29.91,SW,225,6.0,8.0,88,0.00,,,0.00,meteohub,2013-06-12 11:37:00,
2013-06-12 06:42:00,67.8,64.2,29.93,SW,225,8.0,8.0,88,0.00,,,0.00,meteohub,2013-06-12 11:42:00,
2013-06-12 06:47:00,67.8,64.2,29.94,WSW,248,10.0,10.0,88,0.00,,,0.00,meteohub,2013-06-12 11:47:00,
2013-06-12 06:52:00,67.8,64.2,29.93,SW,225,6.0,10.0,88,0.00,,,0.00,meteohub,2013-06-12 11:52:00,
2013-06-12 06:57:00,68.0,64.4,29.93,SW,225,4.0,10.0,88,0.00,,,0.00,meteohub,2013-06-12 11:57:00,
2013-06-12 07:02:00,68.0,64.4,29.92,West,270,5.0,10.0,88,0.00,,,0.00,meteohub,2013-06-12 12:02:00,
2013-06-12 07:07:00,68.0,64.4,29.92,SW,225,8.0,8.0,88,0.00,,,0.00,meteohub,2013-06-12 12:07:00,
2013-06-12 07:12:00,68.0,64.6,29.92,SW,225,8.0,8.0,89,0.00,,,0.00,meteohub,2013-06-12 12:12:00,
2013-06-12 07:17:00,67.8,64.4,29.92,NW,315,10.0,11.0,89,0.00,,,0.00,meteohub,2013-06-12 12:17:00,
2013-06-12 07:22:00,67.8,64.4,29.92,SW,225,10.0,11.0,89,0.00,,,0.00,meteohub,2013-06-12 12:22:00,
2013-06-12 07:27:00,67.8,64.2,29.92,SW,225,7.0,11.0,88,0.00,,,0.00,meteohub,2013-06-12 12:27:00,
2013-06-12 07:32:00,68.0,64.4,29.92,WSW,248,7.0,10.0,88,0.00,,,0.00,meteohub,2013-06-12 12:32:00,
2013-06-12 07:37:00,68.0,64.4,29.89,South,180,3.0,10.0,88,0.00,,,0.00,meteohub,2013-06-12 12:37:00,
2013-06-12 07:42:00,68.0,64.0,29.90,South,180,4.0,8.0,87,0.00,,,0.00,meteohub,2013-06-12 12:42:00,
2013-06-12 07:47:00,68.2,63.9,29.91,SW,225,5.0,7.0,86,0.00,,,0.00,meteohub,2013-06-12 12:47:00,
2013-06-12 07:52:00,68.2,63.9,29.91,NW,315,8.0,10.0,86,0.00,,,0.00,meteohub,2013-06-12 12:52:00,
2013-06-12 07:57:00,68.4,64.0,29.91,SW,225,10.0,10.0,86,0.00,,,0.00,meteohub,2013-06-12 12:57:00,
2013-06-12 08:02:00,68.4,64.0,29.91,SSW,203,6.0,12.0,86,0.00,,,0.00,meteohub,2013-06-12 13:02:00,
2013-06-12 08:07:00,68.4,63.7,29.91,SW,225,7.0,13.0,85,0.00,,,0.00,meteohub,2013-06-12 13:07:00,
2013-06-12 08:12:00,68.5,63.9,29.92,West,270,5.0,13.0,85,0.00,,,0.00,meteohub,2013-06-12 13:12:00,
2013-06-12 08:17:00,68.5,63.9,29.93,West,270,8.0,10.0,85,0.00,,,0.00,meteohub,2013-06-12 13:17:00,
2013-06-12 08:22:00,68.9,63.9,29.94,West,270,12.0,12.0,84,0.00,,,0.00,meteohub,2013-06-12 13:22:00,
2013-06-12 08:27:00,68.9,63.9,29.94,West,270,10.0,14.0,84,0.00,,,0.00,meteohub,2013-06-12 13:27:00,
2013-06-12 08:32:00,68.9,64.2,29.91,South,180,4.0,14.0,85,0.00,,,0.00,meteohub,2013-06-12 13:32:00,
2013-06-12 08:37:00,68.7,64.0,29.89,South,180,7.0,14.0,85,0.01,,,0.01,meteohub,2013-06-12 13:37:00,
2013-06-12 08:42:00,68.5,64.2,29.83,South,180,8.0,11.0,86,0.01,,,0.01,meteohub,2013-06-12 13:42:00,
2013-06-12 08:47:00,68.2,64.2,29.79,SE,135,15.0,15.0,87,0.02,,,0.02,meteohub,2013-06-12 13:47:00,
2013-06-12 08:52:00,68.0,64.4,29.78,SE,135,8.0,15.0,88,0.02,,,0.02,meteohub,2013-06-12 13:52:00,
2013-06-12 08:57:00,68.4,64.4,29.78,SE,135,7.0,15.0,87,0.02,,,0.02,meteohub,2013-06-12 13:57:00,
2013-06-12 09:02:00,68.9,64.2,29.77,East,90,8.0,15.0,85,0.02,,,0.02,meteohub,2013-06-12 14:02:00,
2013-06-12 09:07:00,69.4,64.4,29.77,East,90,6.0,12.0,84,0.02,,,0.02,meteohub,2013-06-12 14:07:00,
2013-06-12 09:12:00,70.0,64.2,29.77,East,90,8.0,9.0,82,0.02,,,0.02,meteohub,2013-06-12 14:12:00,
2013-06-12 09:17:00,70.3,64.9,29.77,East,90,5.0,11.0,83,0.02,,,0.02,meteohub,2013-06-12 14:17:00,
2013-06-12 09:22:00,70.9,65.1,29.78,South,180,5.0,11.0,82,0.02,,,0.02,meteohub,2013-06-12 14:22:00,
2013-06-12 09:27:00,71.1,65.3,29.78,SW,225,6.0,11.0,82,0.02,,,0.02,meteohub,2013-06-12 14:27:00,
2013-06-12 09:32:00,71.1,65.3,29.78,South,180,8.0,8.0,82,0.02,,,0.02,meteohub,2013-06-12 14:32:00,
2013-06-12 09:37:00,71.2,65.5,29.79,SW,225,8.0,8.0,82,0.01,,,0.02,meteohub,2013-06-12 14:37:00,
2013-06-12 09:42:00,71.4,65.3,29.79,South,180,8.0,10.0,81,0.01,,,0.02,meteohub,2013-06-12 14:42:00,
2013-06-12 09:47:00,72.0,65.5,29.80,South,180,12.0,12.0,80,0.00,,,0.02,meteohub,2013-06-12 14:47:00,
2013-06-12 09:52:00,72.5,65.3,29.79,South,180,11.0,12.0,78,0.00,,,0.02,meteohub,2013-06-12 14:52:00,
2013-06-12 09:57:00,73.0,65.8,29.77,South,180,8.0,12.0,78,0.00,,,0.02,meteohub,2013-06-12 14:57:00,
2013-06-12 10:02:00,73.2,65.1,29.76,South,180,9.0,12.0,76,0.00,,,0.02,meteohub,2013-06-12 15:02:00,
2013-06-12 10:07:00,73.0,64.6,29.76,South,180,12.0,12.0,75,0.00,,,0.02,meteohub,2013-06-12 15:07:00,
2013-06-12 10:12:00,72.9,65.3,29.77,South,180,9.0,13.0,77,0.00,,,0.02,meteohub,2013-06-12 15:12:00,
2013-06-12 10:17:00,73.2,66.0,29.76,NE,45,4.0,13.0,78,0.00,,,0.02,meteohub,2013-06-12 15:17:00,
2013-06-12 10:22:00,74.3,66.9,29.75,SE,135,5.0,13.0,78,0.00,,,0.02,meteohub,2013-06-12 15:22:00,
2013-06-12 10:27:00,75.2,66.7,29.75,South,180,10.0,11.0,75,0.00,,,0.02,meteohub,2013-06-12 15:27:00,
2013-06-12 10:32:00,75.6,67.5,29.75,ESE,113,8.0,11.0,76,0.00,,,0.02,meteohub,2013-06-12 15:32:00,
2013-06-12 10:37:00,76.1,67.6,29.75,East,90,5.0,12.0,75,0.00,,,0.02,meteohub,2013-06-12 15:37:00,
2013-06-12 10:42:00,76.6,67.3,29.75,SE,135,10.0,12.0,73,0.00,,,0.02,meteohub,2013-06-12 15:42:00,
2013-06-12 10:47:00,77.2,67.8,29.75,SE,135,8.0,12.0,73,0.00,,,0.02,meteohub,2013-06-12 15:47:00,
2013-06-12 10:52:00,77.0,66.0,29.76,South,180,13.0,13.0,69,0.00,,,0.02,meteohub,2013-06-12 15:52:00,
2013-06-12 10:57:00,76.5,65.5,29.76,South,180,11.0,13.0,69,0.00,,,0.02,meteohub,2013-06-12 15:57:00,
2013-06-12 11:02:00,77.0,66.4,29.76,East,90,8.0,13.0,70,0.00,,,0.02,meteohub,2013-06-12 16:02:00,
2013-06-12 11:07:00,77.2,66.6,29.77,East,90,6.0,13.0,70,0.00,,,0.02,meteohub,2013-06-12 16:07:00,
2013-06-12 11:12:00,77.0,65.7,29.77,East,90,6.0,12.0,68,0.00,,,0.02,meteohub,2013-06-12 16:12:00,
2013-06-12 11:17:00,77.2,66.2,29.78,East,90,7.0,11.0,69,0.00,,,0.02,meteohub,2013-06-12 16:17:00,
2013-06-12 11:22:00,77.7,65.5,29.78,East,90,8.0,11.0,66,0.00,,,0.02,meteohub,2013-06-12 16:22:00,
2013-06-12 11:27:00,77.7,65.8,29.79,SE,135,7.0,9.0,67,0.00,,,0.02,meteohub,2013-06-12 16:27:00,
2013-06-12 11:32:00,78.1,67.1,29.80,NE,45,8.0,8.0,69,0.00,,,0.02,meteohub,2013-06-12 16:32:00,
2013-06-12 11:37:00,78.4,66.6,29.80,NE,45,8.0,8.0,67,0.00,,,0.02,meteohub,2013-06-12 16:37:00,
2013-06-12 11:42:00,78.8,66.9,29.80,East,90,3.0,8.0,67,0.00,,,0.02,meteohub,2013-06-12 16:42:00,
2013-06-12 11:47:00,79.0,65.3,29.80,East,90,9.0,9.0,63,0.00,,,0.02,meteohub,2013-06-12 16:47:00,
2013-06-12 11:52:00,79.0,65.8,29.81,South,180,4.0,9.0,64,0.00,,,0.02,meteohub,2013-06-12 16:52:00,
2013-06-12 11:57:00,79.5,67.6,29.83,SW,225,3.0,9.0,67,0.00,,,0.02,meteohub,2013-06-12 16:57:00,
2013-06-12 12:02:00,79.5,66.7,29.83,SW,225,6.0,9.0,65,0.00,,,0.02,meteohub,2013-06-12 17:02:00,
2013-06-12 12:07:00,79.0,65.8,29.83,SW,225,4.0,7.0,64,0.00,,,0.02,meteohub,2013-06-12 17:07:00,
2013-06-12 12:12:00,78.6,66.4,29.83,West,270,5.0,8.0,66,0.00,,,0.02,meteohub,2013-06-12 17:12:00,
2013-06-12 12:17:00,78.4,66.2,29.83,West,270,3.0,8.0,66,0.00,,,0.02,meteohub,2013-06-12 17:17:00,
2013-06-12 12:22:00,78.3,66.0,29.83,SW,225,3.0,5.0,66,0.00,,,0.02,meteohub,2013-06-12 17:22:00,
2013-06-12 12:27:00,77.9,65.7,29.83,South,180,2.0,5.0,66,0.00,,,0.02,meteohub,2013-06-12 17:27:00,
2013-06-12 12:32:00,78.1,66.2,29.83,NW,315,3.0,5.0,67,0.00,,,0.02,meteohub,2013-06-12 17:32:00,
2013-06-12 12:37:00,78.1,66.7,29.82,NE,45,1.0,4.0,68,0.00,,,0.02,meteohub,2013-06-12 17:37:00,
2013-06-12 12:42:00,78.4,66.9,29.82,NE,45,4.0,4.0,68,0.00,,,0.02,meteohub,2013-06-12 17:42:00,
2013-06-12 12:47:00,78.3,66.4,29.82,NE,45,3.0,4.0,67,0.00,,,0.02,meteohub,2013-06-12 17:47:00,
2013-06-12 12:52:00,78.1,66.7,29.82,NE,45,4.0,4.0,68,0.00,,,0.02,meteohub,2013-06-12 17:52:00,
2013-06-12 12:57:00,77.4,67.6,29.82,NE,45,7.0,8.0,72,0.00,,,0.02,meteohub,2013-06-12 17:57:00,
2013-06-12 13:02:00,77.2,68.2,29.82,NE,45,8.0,8.0,74,0.00,,,0.02,meteohub,2013-06-12 18:02:00,
2013-06-12 13:07:00,76.8,68.4,29.82,NE,45,10.0,10.0,75,0.00,,,0.02,meteohub,2013-06-12 18:07:00,
2013-06-12 13:12:00,77.2,69.1,29.81,ENE,68,7.0,11.0,76,0.00,,,0.02,meteohub,2013-06-12 18:12:00,
2013-06-12 13:17:00,77.9,68.9,29.82,NE,45,10.0,11.0,74,0.00,,,0.02,meteohub,2013-06-12 18:17:00,
2013-06-12 13:22:00,78.4,69.1,29.81,ENE,68,11.0,11.0,73,0.00,,,0.02,meteohub,2013-06-12 18:22:00,
2013-06-12 13:27:00,79.0,69.3,29.81,ENE,68,12.0,14.0,72,0.00,,,0.02,meteohub,2013-06-12 18:27:00,
2013-06-12 13:32:00,79.2,68.5,29.81,NE,45,13.0,14.0,70,0.00,,,0.02,meteohub,2013-06-12 18:32:00,
2013-06-12 13:37:00,79.0,68.7,29.80,NE,45,12.0,14.0,71,0.00,,,0.02,meteohub,2013-06-12 18:37:00,
2013-06-12 13:42:00,79.2,68.5,29.80,NE,45,11.0,14.0,70,0.00,,,0.02,meteohub,2013-06-12 18:42:00,
2013-06-12 13:47:00,79.3,68.7,29.80,NE,45,14.0,14.0,70,0.00,,,0.02,meteohub,2013-06-12 18:47:00,
2013-06-12 13:52:00,79.2,68.9,29.80,NE,45,15.0,15.0,71,0.00,,,0.02,meteohub,2013-06-12 18:52:00,
2013-06-12 13:57:00,78.4,68.2,29.79,NE,45,11.0,15.0,71,0.00,,,0.02,meteohub,2013-06-12 18:57:00,
2013-06-12 14:02:00,78.1,68.7,29.79,ENE,68,13.0,15.0,73,0.00,,,0.02,meteohub,2013-06-12 19:02:00,
2013-06-12 14:07:00,77.9,68.9,29.79,NE,45,15.0,15.0,74,0.00,,,0.02,meteohub,2013-06-12 19:07:00,
2013-06-12 14:12:00,77.7,69.1,29.78,NE,45,15.0,15.0,75,0.00,,,0.02,meteohub,2013-06-12 19:12:00,
2013-06-12 14:17:00,77.4,68.9,29.78,East,90,15.0,15.0,75,0.00,,,0.02,meteohub,2013-06-12 19:17:00,
2013-06-12 14:22:00,77.2,69.1,29.78,NNE,23,15.0,15.0,76,0.00,,,0.02,meteohub,2013-06-12 19:22:00,
2013-06-12 14:27:00,77.0,68.9,29.78,NE,45,13.0,15.0,76,0.00,,,0.02,meteohub,2013-06-12 19:27:00,
2013-06-12 14:32:00,77.0,68.9,29.78,NE,45,17.0,17.0,76,0.00,,,0.02,meteohub,2013-06-12 19:32:00,
2013-06-12 14:37:00,76.8,69.1,29.77,NE,45,15.0,18.0,77,0.00,,,0.02,meteohub,2013-06-12 19:37:00,
2013-06-12 14:42:00,76.8,68.7,29.78,NE,45,17.0,18.0,76,0.00,,,0.02,meteohub,2013-06-12 19:42:00,
2013-06-12 14:47:00,76.8,68.7,29.78,East,90,14.0,18.0,76,0.00,,,0.02,meteohub,2013-06-12 19:47:00,
2013-06-12 14:52:00,76.3,68.2,29.77,ENE,68,13.0,17.0,76,0.00,,,0.02,meteohub,2013-06-12 19:52:00,
2013-06-12 14:57:00,75.7,68.0,29.77,East,90,11.0,17.0,77,0.00,,,0.02,meteohub,2013-06-12 19:57:00,
2013-06-12 15:02:00,75.4,68.0,29.78,East,90,10.0,15.0,78,0.00,,,0.02,meteohub,2013-06-12 20:02:00,
2013-06-12 15:07:00,75.2,67.8,29.78,East,90,11.0,15.0,78,0.00,,,0.02,meteohub,2013-06-12 20:07:00,
2013-06-12 15:12:00,75.0,68.0,29.77,NE,45,11.0,15.0,79,0.00,,,0.02,meteohub,2013-06-12 20:12:00,
2013-06-12 15:17:00,75.6,68.2,29.76,East,90,15.0,15.0,78,0.00,,,0.02,meteohub,2013-06-12 20:17:00,
2013-06-12 15:22:00,76.1,69.1,29.76,East,90,10.0,13.0,79,0.00,,,0.02,meteohub,2013-06-12 20:22:00,
2013-06-12 15:27:00,76.3,68.9,29.75,East,90,13.0,15.0,78,0.00,,,0.02,meteohub,2013-06-12 20:27:00,
2013-06-12 15:32:00,76.6,68.9,29.74,East,90,13.0,15.0,77,0.00,,,0.02,meteohub,2013-06-12 20:32:00,
2013-06-12 15:37:00,76.6,68.9,29.73,East,90,14.0,14.0,77,0.00,,,0.02,meteohub,2013-06-12 20:37:00,
2013-06-12 15:42:00,76.8,69.1,29.74,East,90,14.0,15.0,77,0.00,,,0.02,meteohub,2013-06-12 20:42:00,
2013-06-12 15:47:00,77.2,68.7,29.73,NE,45,16.0,16.0,75,0.00,,,0.02,meteohub,2013-06-12 20:47:00,
2013-06-12 15:52:00,77.4,68.9,29.72,ENE,68,14.0,16.0,75,0.00,,,0.02,meteohub,2013-06-12 20:52:00,
2013-06-12 15:57:00,77.5,68.9,29.71,East,90,15.0,17.0,75,0.00,,,0.02,meteohub,2013-06-12 20:57:00,
2013-06-12 16:02:00,77.9,68.9,29.71,NE,45,17.0,17.0,74,0.00,,,0.02,meteohub,2013-06-12 21:02:00,
2013-06-12 16:07:00,78.1,69.4,29.69,ENE,68,11.0,19.0,75,0.00,,,0.02,meteohub,2013-06-12 21:07:00,
2013-06-12 16:12:00,78.3,69.3,29.68,East,90,15.0,19.0,74,0.00,,,0.02,meteohub,2013-06-12 21:12:00,
2013-06-12 16:17:00,78.6,68.9,29.68,East,90,17.0,19.0,72,0.00,,,0.02,meteohub,2013-06-12 21:17:00,
2013-06-12 16:22:00,78.1,68.4,29.68,East,90,17.0,17.0,72,0.00,,,0.02,meteohub,2013-06-12 21:22:00,
2013-06-12 16:27:00,77.7,68.4,29.68,East,90,15.0,18.0,73,0.00,,,0.02,meteohub,2013-06-12 21:27:00,
2013-06-12 16:32:00,77.4,68.0,29.69,East,90,17.0,19.0,73,0.00,,,0.02,meteohub,2013-06-12 21:32:00,
2013-06-12 16:37:00,76.6,67.6,29.69,East,90,16.0,19.0,74,0.00,,,0.02,meteohub,2013-06-12 21:37:00,
2013-06-12 16:42:00,76.1,68.0,29.69,East,90,11.0,19.0,76,0.00,,,0.02,meteohub,2013-06-12 21:42:00,
2013-06-12 16:47:00,75.7,67.6,29.69,East,90,13.0,19.0,76,0.00,,,0.02,meteohub,2013-06-12 21:47:00,
2013-06-12 16:52:00,75.6,67.5,29.69,East,90,11.0,16.0,76,0.00,,,0.02,meteohub,2013-06-12 21:52:00,
2013-06-12 16:57:00,75.4,67.6,29.69,East,90,13.0,15.0,77,0.00,,,0.02,meteohub,2013-06-12 21:57:00,
2013-06-12 17:02:00,75.0,67.6,29.68,East,90,10.0,15.0,78,0.00,,,0.02,meteohub,2013-06-12 22:02:00,
2013-06-12 17:07:00,75.0,67.6,29.68,ENE,68,11.0,14.0,78,0.00,,,0.02,meteohub,2013-06-12 22:07:00,
2013-06-12 17:12:00,74.8,67.8,29.68,East,90,8.0,14.0,79,0.00,,,0.02,meteohub,2013-06-12 22:12:00,
2013-06-12 17:17:00,74.8,67.8,29.68,East,90,8.0,12.0,79,0.00,,,0.02,meteohub,2013-06-12 22:17:00,
2013-06-12 17:22:00,74.8,67.8,29.68,East,90,8.0,11.0,79,0.00,,,0.02,meteohub,2013-06-12 22:22:00,
2013-06-12 17:27:00,74.8,67.5,29.68,East,90,8.0,11.0,78,0.00,,,0.02,meteohub,2013-06-12 22:27:00,
2013-06-12 17:32:00,74.7,67.3,29.69,NE,45,8.0,11.0,78,0.00,,,0.02,meteohub,2013-06-12 22:32:00,
2013-06-12 17:37:00,74.3,67.3,29.69,NE,45,6.0,10.0,79,0.00,,,0.02,meteohub,2013-06-12 22:37:00,
2013-06-12 17:42:00,74.3,67.6,29.70,North,0,8.0,10.0,80,0.00,,,0.02,meteohub,2013-06-12 22:42:00,
2013-06-12 17:47:00,74.1,67.6,29.70,NNE,23,11.0,11.0,80,0.00,,,0.02,meteohub,2013-06-12 22:47:00,
2013-06-12 17:52:00,73.8,67.3,29.70,North,0,17.0,17.0,80,0.00,,,0.02,meteohub,2013-06-12 22:52:00,
2013-06-12 17:57:00,73.2,67.5,29.69,NE,45,18.0,18.0,82,0.00,,,0.02,meteohub,2013-06-12 22:57:00,
2013-06-12 18:02:00,72.3,66.9,29.67,NE,45,13.0,18.0,83,0.01,,,0.04,meteohub,2013-06-12 23:02:00,
2013-06-12 18:07:00,71.8,67.1,29.65,NE,45,15.0,18.0,85,0.01,,,0.04,meteohub,2013-06-12 23:07:00,
2013-06-12 18:12:00,71.2,66.9,29.65,East,90,13.0,18.0,86,0.01,,,0.04,meteohub,2013-06-12 23:12:00,
2013-06-12 18:17:00,71.1,66.7,29.63,East,90,13.0,20.0,86,0.01,,,0.04,meteohub,2013-06-12 23:17:00,
2013-06-12 18:22:00,70.7,66.6,29.64,East,90,13.0,20.0,87,0.01,,,0.04,meteohub,2013-06-12 23:22:00,
2013-06-12 18:27:00,70.5,66.7,29.64,East,90,13.0,17.0,88,0.01,,,0.04,meteohub,2013-06-12 23:27:00,
2013-06-12 18:32:00,70.3,66.6,29.65,ENE,68,9.0,17.0,88,0.01,,,0.04,meteohub,2013-06-12 23:32:00,
2013-06-12 18:37:00,70.2,66.7,29.65,NE,45,15.0,17.0,89,0.01,,,0.04,meteohub,2013-06-12 23:37:00,
2013-06-12 18:42:00,69.8,66.4,29.67,NE,45,15.0,15.0,89,0.01,,,0.04,meteohub,2013-06-12 23:42:00,
2013-06-12 18:47:00,69.4,66.7,29.68,ENE,68,12.0,17.0,91,0.01,,,0.04,meteohub,2013-06-12 23:47:00,
2013-06-12 18:52:00,69.1,66.4,29.69,NE,45,16.0,17.0,91,0.01,,,0.04,meteohub,2013-06-12 23:52:00,
2013-06-12 18:57:00,68.7,66.4,29.70,NE,45,15.0,17.0,92,0.01,,,0.04,meteohub,2013-06-12 23:57:00,
2013-06-12 19:02:00,68.4,66.0,29.69,NE,45,15.0,17.0,92,0.00,,,0.04,meteohub,2013-06-13 00:02:00,
2013-06-12 19:07:00,68.0,65.7,29.69,NE,45,15.0,17.0,92,0.00,,,0.04,meteohub,2013-06-13 00:07:00,
2013-06-12 19:12:00,67.6,65.3,29.69,NE,45,14.0,18.0,92,0.00,,,0.04,meteohub,2013-06-13 00:12:00,
2013-06-12 19:17:00,67.5,65.3,29.70,NE,45,11.0,18.0,93,0.00,,,0.04,meteohub,2013-06-13 00:17:00,
2013-06-12 19:22:00,67.5,65.3,29.70,ENE,68,10.0,18.0,93,0.00,,,0.04,meteohub,2013-06-13 00:22:00,
2013-06-12 19:27:00,67.3,65.1,29.70,North,0,9.0,15.0,93,0.00,,,0.04,meteohub,2013-06-13 00:27:00,
2013-06-12 19:32:00,67.3,65.5,29.70,NE,45,8.0,11.0,94,0.00,,,0.04,meteohub,2013-06-13 00:32:00,
2013-06-12 19:37:00,67.1,64.9,29.70,NE,45,16.0,16.0,93,0.00,,,0.04,meteohub,2013-06-13 00:37:00,
2013-06-12 19:42:00,67.1,65.3,29.70,NE,45,15.0,17.0,94,0.00,,,0.04,meteohub,2013-06-13 00:42:00,
2013-06-12 19:47:00,66.9,65.1,29.70,NE,45,16.0,17.0,94,0.00,,,0.04,meteohub,2013-06-13 00:47:00,
2013-06-12 19:52:00,66.6,64.8,29.71,NE,45,15.0,18.0,94,0.00,,,0.04,meteohub,2013-06-13 00:52:00,
2013-06-12 19:57:00,66.4,64.6,29.71,NE,45,16.0,18.0,94,0.00,,,0.04,meteohub,2013-06-13 00:57:00,
2013-06-12 20:02:00,66.2,64.0,29.72,NE,45,19.0,19.0,93,0.00,,,0.04,meteohub,2013-06-13 01:02:00,
2013-06-12 20:07:00,66.0,64.2,29.73,NE,45,17.0,19.0,94,0.00,,,0.04,meteohub,2013-06-13 01:07:00,
2013-06-12 20:12:00,65.7,63.5,29.71,ENE,68,16.0,19.0,93,0.00,,,0.04,meteohub,2013-06-13 01:12:00,
2013-06-12 20:17:00,65.5,63.3,29.73,NE,45,15.0,20.0,93,0.00,,,0.04,meteohub,2013-06-13 01:17:00,
2013-06-12 20:22:00,65.1,63.3,29.72,East,90,15.0,21.0,94,0.00,,,0.04,meteohub,2013-06-13 01:22:00,
2013-06-12 20:27:00,64.8,63.3,29.73,NE,45,12.0,21.0,95,0.00,,,0.04,meteohub,2013-06-13 01:27:00,
2013-06-12 20:32:00,64.4,63.3,29.73,ENE,68,16.0,21.0,96,0.06,,,0.09,meteohub,2013-06-13 01:32:00,
2013-06-12 20:37:00,64.0,63.0,29.73,NE,45,13.0,17.0,96,0.13,,,0.17,meteohub,2013-06-13 01:37:00,
2013-06-12 20:42:00,63.9,63.0,29.74,NE,45,11.0,16.0,97,0.13,,,0.17,meteohub,2013-06-13 01:42:00,
2013-06-12 20:47:00,63.9,63.3,29.73,NE,45,17.0,17.0,98,0.13,,,0.17,meteohub,2013-06-13 01:47:00,
2013-06-12 20:52:00,63.9,63.3,29.73,NE,45,15.0,17.0,98,0.14,,,0.18,meteohub,2013-06-13 01:52:00,
2013-06-12 20:57:00,63.9,63.3,29.74,NE,45,11.0,17.0,98,0.14,,,0.18,meteohub,2013-06-13 01:57:00,
2013-06-12 21:02:00,63.9,63.3,29.75,ENE,68,10.0,17.0,98,0.14,,,0.18,meteohub,2013-06-13 02:02:00,
2013-06-12 21:07:00,64.0,63.5,29.76,NE,45,16.0,16.0,98,0.15,,,0.19,meteohub,2013-06-13 02:07:00,
2013-06-12 21:12:00,64.0,63.5,29.75,NE,45,13.0,16.0,98,0.17,,,0.20,meteohub,2013-06-13 02:12:00,
2013-06-12 21:17:00,64.2,63.7,29.74,NE,45,17.0,17.0,98,0.17,,,0.20,meteohub,2013-06-13 02:17:00,
2013-06-12 21:22:00,64.2,63.7,29.73,NE,45,17.0,17.0,98,0.17,,,0.20,meteohub,2013-06-13 02:22:00,
2013-06-12 21:27:00,64.2,63.7,29.70,NE,45,17.0,17.0,98,0.15,,,0.20,meteohub,2013-06-13 02:27:00,
2013-06-12 21:32:00,64.2,63.7,29.70,NE,45,21.0,21.0,98,0.08,,,0.20,meteohub,2013-06-13 02:32:00,
2013-06-12 21:37:00,64.2,63.7,29.71,NE,45,21.0,21.0,98,0.04,,,0.20,meteohub,2013-06-13 02:37:00,
2013-06-12 21:42:00,64.2,63.3,29.70,NE,45,21.0,22.0,97,0.04,,,0.20,meteohub,2013-06-13 02:42:00,
2013-06-12 21:47:00,64.0,63.1,29.69,East,90,23.0,27.0,97,0.04,,,0.20,meteohub,2013-06-13 02:47:00,
2013-06-12 21:52:00,64.0,63.1,29.70,NE,45,17.0,27.0,97,0.02,,,0.20,meteohub,2013-06-13 02:52:00,
2013-06-12 21:57:00,63.9,63.0,29.71,East,90,6.0,27.0,97,0.02,,,0.20,meteohub,2013-06-13 02:57:00,
2013-06-12 22:02:00,63.9,63.0,29.71,East,90,9.0,23.0,97,0.04,,,0.20,meteohub,2013-06-13 03:02:00,
2013-06-12 22:07:00,64.0,63.1,29.69,East,90,11.0,17.0,97,0.02,,,0.21,meteohub,2013-06-13 03:07:00,
2013-06-12 22:12:00,64.0,63.1,29.70,ENE,68,8.0,13.0,97,0.01,,,0.21,meteohub,2013-06-13 03:12:00,
2013-06-12 22:17:00,63.9,63.0,29.71,East,90,8.0,13.0,97,0.01,,,0.21,meteohub,2013-06-13 03:17:00,
2013-06-12 22:22:00,63.9,63.0,29.72,NE,45,8.0,13.0,97,0.02,,,0.22,meteohub,2013-06-13 03:22:00,
2013-06-12 22:27:00,63.9,62.8,29.73,NE,45,5.0,11.0,96,0.02,,,0.22,meteohub,2013-06-13 03:27:00,
2013-06-12 22:32:00,63.9,62.8,29.73,North,0,6.0,11.0,96,0.02,,,0.22,meteohub,2013-06-13 03:32:00,
2013-06-12 22:37:00,63.9,62.8,29.74,North,0,7.0,11.0,96,0.02,,,0.22,meteohub,2013-06-13 03:37:00,
2013-06-12 22:42:00,63.9,62.8,29.74,NNE,23,12.0,12.0,96,0.02,,,0.22,meteohub,2013-06-13 03:42:00,
2013-06-12 22:47:00,63.9,62.8,29.75,North,0,8.0,12.0,96,0.02,,,0.22,meteohub,2013-06-13 03:47:00,
2013-06-12 22:52:00,63.9,62.4,29.74,NE,45,10.0,12.0,95,0.02,,,0.22,meteohub,2013-06-13 03:52:00,
2013-06-12 22:58:00,63.9,62.4,29.75,NNE,23,6.0,12.0,95,0.02,,,0.22,meteohub,2013-06-13 03:58:00,
2013-06-12 23:01:00,64.0,62.6,29.75,NE,45,9.0,11.0,95,0.01,,,0.22,meteohub,2013-06-13 04:01:00,
2013-06-12 23:02:00,64.0,62.6,29.74,NE,45,8.0,11.0,95,0.01,,,0.22,meteohub,2013-06-13 04:02:00,
2013-06-12 23:03:00,64.0,63.0,29.75,North,0,11.0,11.0,96,0.01,,,0.22,meteohub,2013-06-13 04:03:00,
2013-06-12 23:08:00,63.9,62.8,29.74,North,0,13.0,13.0,96,0.01,,,0.22,meteohub,2013-06-13 04:08:00,
2013-06-12 23:10:00,63.7,62.6,29.74,NE,45,14.0,15.0,96,0.01,,,0.22,meteohub,2013-06-13 04:10:00,
2013-06-12 23:15:00,63.3,62.4,29.74,NE,45,11.0,15.0,97,0.01,,,0.22,meteohub,2013-06-13 04:15:00,
2013-06-12 23:20:00,63.1,62.2,29.74,SW,225,13.0,15.0,97,0.00,,,0.22,meteohub,2013-06-13 04:20:00,
2013-06-12 23:25:00,63.0,62.1,29.74,NE,45,15.0,15.0,97,0.00,,,0.22,meteohub,2013-06-13 04:25:00,
2013-06-12 23:31:00,62.8,61.9,29.74,NE,45,17.0,17.0,97,0.00,,,0.22,meteohub,2013-06-13 04:31:00,
2013-06-12 23:36:00,62.6,61.7,29.75,NE,45,21.0,21.0,97,0.00,,,0.22,meteohub,2013-06-13 04:36:00,
2013-06-12 23:41:00,62.4,61.5,29.75,NE,45,16.0,21.0,97,0.00,,,0.22,meteohub,2013-06-13 04:41:00,
2013-06-12 23:46:00,62.4,61.5,29.75,North,0,17.0,21.0,97,0.00,,,0.22,meteohub,2013-06-13 04:46:00,
2013-06-12 23:51:00,61.9,61.0,29.75,NE,45,19.0,22.0,97,0.00,,,0.22,meteohub,2013-06-13 04:51:00,
2013-06-12 23:56:00,61.5,60.4,29.76,NE,45,18.0,23.0,96,0.00,,,0.22,meteohub,2013-06-13 04:56:00,